Location: Frizzleburg
(41.0764°N, 80.4548°W)
Time: 00:32:49
(UTC+00:00)

STARLINK-59 - Pass Details

Date: 17 November 2019
Orbit: 529 x 531 km, 53.0° (Epoch: 09 December)

Event Time Altitude Azimuth Distance (km) Brightness Sun altitude
Exits shadow 10:04:47 42° 169° (S) 760 4.3 -23.8°
Maximum altitude 10:05:30 48° 136° (SE) 699 4.4 -23.7°
Drops below altitude 10° 10:09:22 10° 61° (ENE) 1,782 7.0 -23.0°
Enters shadow 11:11:33 -61° 236° (WSW) 11,851 10.3 -11.5°
